Weather History for KDYT - March, 2013

Change the Weather History Date:

Tuesday, March 26, 2013

  Actual Average Record
Temperature  
Mean Temperature 34 °F -  
Max Temperature 37 °F 38 °F 57 °F (1963)
Min Temperature 30 °F 20 °F -20 °F (1965)
Degree Days  
Heating Degree Days 32    
Moisture  
Dew Point 25 °F    
Average Humidity 72    
Maximum Humidity 86    
Minimum Humidity 45    
Precipitation  
Precipitation 0.00 in - - ()
Sea Level Pressure  
Sea Level Pressure 30.25 in    
Wind  
Wind Speed 1 mph (NW)    
Max Wind Speed 6 mph    
Max Gust Speed -    
Visibility 10 miles    
Events      
Averages and records for this station are not official NWS values.
T = Trace of Precipitation, MM = Missing Value Source: NWS Daily Summary

Daily Weather History Graph

Daily Weather History Graph

Search for Another Location

Airport or City:

Trip Planner

Search our weather history database for the weather conditions in past years. The results will help you decide how hot, cold, wet, or windy it might be!

Date:

Astronomy

Mar. 26, 2013 Rise Set
Actual Time 6:58 AM CDT 7:29 PM CDT
Civil Twilight 6:28 AM CDT 7:59 PM CDT
Nautical Twilight 5:52 AM CDT 8:36 PM CDT
Astronomical Twilight 5:15 AM CDT 9:13 PM CDT
Moon 7:07 PM CDT (3/26) 6:16 AM CDT (3/26)
Length of Visible Light 13h 31m
Length of Day
12h 30m
Waxing Gibbous, 99% of the Moon is Illuminated
Mar 26
Waxing Gibbous
Mar 27
Full
Apr 2
Last Quarter
Apr 10
New
Apr 18
First Quarter

Hourly Weather History & Observations

Time (CDT) Temp. Windchill Dew Point Humidity Pressure Visibility Wind Dir Wind Speed Gust Speed Precip Events Conditions
12:14 AM 32.0 °F - 24.8 °F 75% 30.20 in 10.0 mi Calm Calm - N/A   Overcast
12:34 AM 32.0 °F 28.7 °F 26.6 °F 80% 30.20 in 10.0 mi West 3.5 mph - N/A   Overcast
12:53 AM 30.2 °F - 26.6 °F 86% 30.20 in 10.0 mi Calm Calm - N/A   Overcast
1:14 AM 32.0 °F 26.4 °F 26.6 °F 80% 30.21 in 10.0 mi ESE 5.8 mph - N/A   Overcast
1:33 AM 32.0 °F - 24.8 °F 75% 30.21 in 10.0 mi Calm Calm - N/A   Overcast
1:53 AM 30.2 °F - 26.6 °F 86% 30.22 in 10.0 mi Calm Calm - N/A   Overcast
2:13 AM 30.2 °F - 26.6 °F 86% 30.22 in 10.0 mi Calm Calm - N/A   Overcast
2:33 AM 30.2 °F - 26.6 °F 86% 30.22 in 10.0 mi Calm Calm - N/A   Overcast
2:54 AM 30.2 °F - 26.6 °F 86% 30.21 in 10.0 mi Calm Calm - N/A   Overcast
3:13 AM 30.2 °F - 26.6 °F 86% 30.21 in 10.0 mi Calm Calm - N/A   Overcast
3:33 AM 30.2 °F - 26.6 °F 86% 30.21 in 10.0 mi Calm Calm - N/A   Overcast
3:54 AM 30.2 °F - 26.6 °F 86% 30.22 in 10.0 mi Calm Calm - N/A   Overcast
4:13 AM 32.0 °F 28.7 °F 26.6 °F 80% 30.22 in 10.0 mi NNW 3.5 mph - N/A   Overcast
4:33 AM 30.2 °F - 26.6 °F 86% 30.22 in 10.0 mi Calm Calm - N/A   Overcast
4:54 AM 33.8 °F 30.8 °F 24.8 °F 70% 30.22 in 10.0 mi NW 3.5 mph - N/A   Overcast
5:13 AM 32.0 °F 27.5 °F 26.6 °F 80% 30.22 in 10.0 mi NNW 4.6 mph - N/A   Overcast
5:33 AM 33.8 °F 29.6 °F 26.6 °F 75% 30.22 in 10.0 mi NNW 4.6 mph - N/A   Overcast
5:54 AM 30.2 °F 26.7 °F 24.8 °F 80% 30.23 in 10.0 mi WNW 3.5 mph - N/A   Overcast
6:13 AM 30.2 °F 25.4 °F 24.8 °F 80% 30.23 in 10.0 mi WNW 4.6 mph - N/A   Overcast
6:33 AM 30.2 °F 26.7 °F 24.8 °F 80% 30.23 in 10.0 mi NW 3.5 mph - N/A   Overcast
6:53 AM 32.0 °F 27.5 °F 24.8 °F 75% 30.24 in 10.0 mi NW 4.6 mph - N/A   Overcast
7:13 AM 32.0 °F 27.5 °F 24.8 °F 75% 30.24 in 10.0 mi NNW 4.6 mph - N/A   Overcast
7:34 AM 32.0 °F 27.5 °F 23.0 °F 69% 30.25 in 10.0 mi NNW 4.6 mph - N/A   Overcast
7:53 AM 30.2 °F - 24.8 °F 80% 30.25 in 10.0 mi Calm Calm - N/A   Overcast
8:13 AM 30.2 °F 25.4 °F 24.8 °F 80% 30.26 in 10.0 mi WNW 4.6 mph - N/A   Overcast
8:34 AM 30.2 °F 25.4 °F 24.8 °F 80% 30.26 in 10.0 mi NW 4.6 mph - N/A   Overcast
8:53 AM 32.0 °F - 24.8 °F 75% 30.26 in 10.0 mi Calm Calm - N/A   Overcast
9:13 AM 32.0 °F 28.7 °F 26.6 °F 80% 30.26 in 10.0 mi North 3.5 mph - N/A   Overcast
9:34 AM 32.0 °F 28.7 °F 26.6 °F 80% 30.27 in 10.0 mi SW 3.5 mph - N/A   Overcast
9:53 AM 33.8 °F - 26.6 °F 75% 30.27 in 10.0 mi Calm Calm - N/A   Overcast
10:13 AM 33.8 °F - 26.6 °F 75% 30.27 in 10.0 mi Calm Calm - N/A   Mostly Cloudy
10:34 AM 33.8 °F - 26.6 °F 75% 30.27 in 10.0 mi Calm Calm - N/A   Scattered Clouds
10:53 AM 35.6 °F - 26.6 °F 70% 30.27 in 10.0 mi Calm Calm - N/A   Clear
11:14 AM 35.6 °F - 26.6 °F 70% 30.27 in 10.0 mi Calm Calm - N/A   Clear
11:34 AM 35.6 °F 32.8 °F 26.6 °F 70% 30.27 in 10.0 mi SSE 3.5 mph - N/A   Scattered Clouds
11:53 AM 35.6 °F 32.8 °F 26.6 °F 70% 30.27 in 10.0 mi ESE 3.5 mph - N/A   Mostly Cloudy
12:14 PM 35.6 °F - 26.6 °F 70% 30.27 in 10.0 mi Calm Calm - N/A   Mostly Cloudy
12:33 PM 37.4 °F - 24.8 °F 60% 30.27 in 10.0 mi Calm Calm - N/A   Overcast
12:53 PM 37.4 °F - 21.2 °F 52% 30.26 in 10.0 mi Calm Calm - N/A   Overcast
1:14 PM 37.4 °F - 19.4 °F 48% 30.26 in 10.0 mi Calm Calm - N/A   Overcast
1:34 PM 35.6 °F 32.8 °F 28.4 °F 75% 30.26 in 10.0 mi East 3.5 mph - N/A   Overcast
1:53 PM 35.6 °F - 26.6 °F 70% 30.26 in 10.0 mi Calm Calm - N/A   Mostly Cloudy
2:14 PM 35.6 °F 32.8 °F 26.6 °F 70% 30.26 in 10.0 mi East 3.5 mph - N/A   Mostly Cloudy
2:33 PM 37.4 °F - 24.8 °F 60% 30.26 in 10.0 mi Calm Calm - N/A   Overcast
2:53 PM 35.6 °F - 24.8 °F 65% 30.26 in 10.0 mi Calm Calm - N/A   Overcast
3:14 PM 35.6 °F 31.7 °F 26.6 °F 70% 30.26 in 10.0 mi ESE 4.6 mph - N/A   Overcast
3:33 PM 35.6 °F 32.8 °F 24.8 °F 65% 30.25 in 10.0 mi East 3.5 mph - N/A   Overcast
3:54 PM 37.4 °F 34.9 °F 19.4 °F 48% 30.25 in 10.0 mi SE 3.5 mph - N/A   Overcast
4:13 PM 37.4 °F - 21.2 °F 52% 30.25 in 10.0 mi Calm Calm - N/A   Overcast
4:33 PM 37.4 °F - 19.4 °F 48% 30.25 in 10.0 mi Calm Calm - N/A   Overcast
4:53 PM 37.4 °F - 19.4 °F 48% 30.25 in 10.0 mi Calm Calm - N/A   Overcast
5:13 PM 37.4 °F - 17.6 °F 45% 30.25 in 10.0 mi Calm Calm - N/A   Overcast
5:34 PM 35.6 °F - 24.8 °F 65% 30.25 in 10.0 mi Calm Calm - N/A   Overcast
5:53 PM 33.8 °F - 28.4 °F 81% 30.25 in 10.0 mi Calm Calm - N/A   Overcast
6:13 PM 35.6 °F 32.8 °F 24.8 °F 65% 30.25 in 10.0 mi East 3.5 mph - N/A   Overcast
6:34 PM 35.6 °F - 23.0 °F 60% 30.26 in 10.0 mi Calm Calm - N/A   Overcast
6:53 PM 35.6 °F - 24.8 °F 65% 30.26 in 10.0 mi Calm Calm - N/A   Overcast
7:13 PM 33.8 °F - 26.6 °F 75% 30.26 in 10.0 mi Calm Calm - N/A   Overcast
7:34 PM 33.8 °F - 24.8 °F 70% 30.26 in 10.0 mi Calm Calm - N/A   Overcast
7:53 PM 33.8 °F - 24.8 °F 70% 30.26 in 10.0 mi Calm Calm - N/A   Overcast
8:13 PM 33.8 °F - 28.4 °F 81% 30.26 in 10.0 mi Calm Calm - N/A   Overcast
8:34 PM 33.8 °F - 28.4 °F 81% 30.27 in 10.0 mi Calm Calm - N/A   Overcast
8:53 PM 33.8 °F - 26.6 °F 75% 30.27 in 10.0 mi Calm Calm - N/A   Overcast
9:13 PM 33.8 °F - 24.8 °F 70% 30.27 in 10.0 mi Calm Calm - N/A   Overcast
9:34 PM 33.8 °F - 24.8 °F 70% 30.27 in 10.0 mi Calm Calm - N/A   Overcast
9:53 PM 33.8 °F - 24.8 °F 70% 30.27 in 10.0 mi Calm Calm - N/A   Overcast
10:14 PM 33.8 °F 30.8 °F 23.0 °F 65% 30.27 in 10.0 mi West 3.5 mph - N/A   Overcast
10:34 PM 33.8 °F 30.8 °F 23.0 °F 65% 30.27 in 10.0 mi WSW 3.5 mph - N/A   Overcast
10:53 PM 33.8 °F - 24.8 °F 70% 30.27 in 10.0 mi Calm Calm - N/A   Overcast
11:14 PM 35.6 °F - 21.2 °F 56% 30.27 in 10.0 mi Calm Calm - N/A   Overcast
11:34 PM 33.8 °F - 23.0 °F 65% 30.27 in 10.0 mi Calm Calm - N/A   Overcast
11:53 PM 35.6 °F - 21.2 °F 56% 30.27 in 10.0 mi Calm Calm - N/A   Overcast